[[{"header":{"parameterUnit":"m.s-1","parameterCategory":1,"la1":30.2991,"la2":30.254,"lo1":-89.0895,"lo2":-89.0444,"dy":0.0017,"dx":0.0017,"nx":28,"ny":28,"refTime":"2024-05-30T21:00:00:Z","depth":0,"parameterNumber":2,"parameterNumberName":"U-component_of_WINDS"},"data":[0,0,0,0,0,0,0,0,0,0,0,0,0,0,0,0,0,0,0,0,0,0,0,0,0,0,0,0,0,0,0,0,0,0,0,0,0,0,0,0,0,0,0,0,0,0,0,0,0,0,0,0,0,0,0,0,0,0,-2.3483,-2.3483,0,-2.3442,-2.3441,-2.3441,-2.3394,-2.3394,-2.3393,-2.3392,-2.3347,-2.3347,-2.3346,0,0,0,0,0,0,0,0,0,0,0,0,0,-2.352,-2.3519,-2.3483,-2.3483,-2.3482,-2.3442,-2.3441,-2.3441,-2.3395,-2.3394,-2.3393,-2.3392,-2.3347,-2.3347,-2.3346,0,0,0,0,0,0,0,0,0,0,0,0,0,-2.3494,-2.3519,-2.3483,-2.3454,-2.3451,-2.3442,-2.3441,-2.3441,-2.3395,-2.3394,-2.3393,-2.3392,-2.3348,-2.3347,-2.3346,-2.3361,0,0,-2.3343,-2.3343,0,0,0,0,0,0,0,0,-2.3495,-2.3492,-2.3459,-2.3456,-2.3453,-2.3422,-2.3438,-2.3414,-2.3395,-2.3416,-2.3392,-2.3391,-2.3373,-2.337,-2.3364,-2.3359,-2.3357,-2.3343,-2.3343,-2.3342,-2.3342,0,0,0,0,0,0,0,-2.3497,-2.3494,-2.3467,-2.3459,-2.3455,-2.3443,-2.3438,-2.3433,-2.34,-2.3414,-2.3411,-2.3407,-2.3371,-2.3365,-2.3363,-2.3356,-2.3343,-2.3342,-2.3342,-2.3341,-2.336,-2.3361,0,0,0,0,0,0,-2.3504,-2.3496,-2.3468,-2.3465,-2.3472,-2.3443,-2.3437,-2.3433,-2.34,-2.3395,-2.3408,-2.3405,-2.3367,-2.3364,-2.3361,-2.3376,-2.3342,-2.3341,-2.3341,-2.3359,-2.3361,-2.3362,0,0,0,0,0,0,-2.3505,-2.3502,-2.347,-2.348,-2.3475,-2.3443,-2.3439,-2.3433,-2.3427,-2.3395,-2.3389,-2.3408,-2.3366,-2.3362,-2.3361,-2.3374,-2.3341,-2.334,-2.3358,-2.336,-2.3361,-2.3406,0,0,0,0,0,0,-2.3506,-2.3502,-2.3508,-2.348,-2.3474,-2.3472,-2.344,-2.3433,-2.3426,-2.3422,-2.3394,-2.3388,-2.3365,-2.3363,-2.336,-2.3372,-2.334,-2.3357,-2.3359,-2.3361,-2.3403,-2.3409,-2.3414,0,0,0,0,0,-2.3507,-2.3522,-2.3509,-2.3506,-2.3481,-2.3472,-2.3469,-2.3443,-2.3427,-2.3432,-2.3412,-2.3389,-2.3373,-2.3363,-2.336,-2.3371,-2.3356,-2.3358,-2.336,-2.3401,-2.3408,-2.3414,0,0,0,0,0,0,-2.3551,-2.3518,-2.3503,-2.3509,-2.3494,-2.3465,-2.347,-2.3451,-2.3439,-2.3436,-2.3403,-2.3397,-2.34,-2.3385,-2.3375,-2.3384,-2.3361,-2.3363,-2.3393,-2.3399,-2.3404,-2.3407,-2.3339,0,0,0,0,0,-2.3562,-2.3558,-2.3529,-2.3537,-2.3531,-2.3502,-2.3497,-2.3478,-2.3461,-2.3454,-2.3434,-2.3418,-2.3409,-2.3403,-2.3393,-2.3402,-2.3394,-2.3408,-2.3413,-2.3418,-2.3419,-2.3422,-2.3427,-2.3369,-2.3369,-2.3369,0,0,-2.3583,-2.3564,-2.3564,-2.3545,-2.3532,-2.3528,-2.3497,-2.3494,-2.3491,-2.3454,-2.3452,-2.3436,-2.3416,-2.3419,-2.342,-2.3408,-2.3434,-2.342,-2.3424,-2.3423,-2.3425,-2.343,-2.3435,-2.3371,-2.337,-2.337,0,0,-2.362,-2.3606,-2.3611,-2.3598,-2.3578,-2.3559,-2.3561,-2.3535,-2.3523,-2.3521,-2.3493,-2.3488,-2.3474,-2.346,-2.3451,-2.3484,-2.3462,-2.3482,-2.3508,-2.3512,-2.3516,-2.352,-2.3531,-2.3535,-2.3483,-2.3484,-2.3484,0,-2.3648,-2.3643,-2.3616,-2.3615,-2.3608,-2.3575,-2.3579,-2.3568,-2.3546,-2.3541,-2.3528,-2.3509,-2.3493,-2.3493,-2.3501,-2.3495,-2.3495,-2.3484,-2.3518,-2.3521,-2.3525,-2.3535,-2.3539,-2.3486,-2.3486,-2.3485,-2.3485,0,-2.3679,-2.3675,-2.3682,-2.3662,-2.3655,-2.3657,-2.363,-2.3626,-2.3608,-2.359,-2.3588,-2.3568,-2.3553,-2.3552,-2.3534,-2.3549,-2.3542,-2.3524,-2.35,-2.3533,-2.3542,-2.3546,-2.3489,-2.3489,-2.3488,-2.3487,0,0,-2.3741,-2.3707,-2.371,-2.37,-2.3676,-2.3672,-2.3673,-2.366,-2.3657,-2.3643,-2.3641,-2.363,-2.3613,-2.3604,-2.3584,-2.3587,-2.3613,-2.3568,-2.3567,-2.3576,-2.3628,-2.3641,-2.3646,-2.3599,-2.36,-2.36,-2.363,0,-2.3773,-2.3772,-2.3748,-2.3754,-2.375,-2.372,-2.372,-2.3705,-2.3688,-2.3682,-2.3663,-2.3656,-2.3634,-2.3628,-2.363,-2.361,-2.3623,-2.3607,-2.3596,-2.3596,-2.3602,-2.3651,-2.3665,-2.3694,-2.3633,-2.3633,-2.3634,0,-2.381,-2.3799,-2.3805,-2.3781,-2.3778,-2.3779,-2.3765,-2.3759,-2.3741,-2.3729,-2.3719,-2.3697,-2.3694,-2.3673,-2.3669,-2.3659,-2.3653,-2.3643,-2.3643,-2.364,-2.3617,-2.3649,-2.3702,-2.3706,-2.3639,-2.3639,-2.3638,0,-2.3854,-2.3841,-2.3842,-2.3835,-2.3807,-2.3808,-2.3797,-2.3778,-2.3771,-2.3759,-2.3754,-2.3742,-2.3734,-2.3724,-2.3699,-2.3686,-2.3698,-2.3674,-2.3687,-2.3687,-2.369,-2.369,-2.3742,-2.3688,-2.3688,-2.3687,-2.3687,0,-2.3892,-2.3896,-2.3862,-2.3863,-2.3867,-2.3839,-2.3843,-2.3829,-2.3812,-2.3809,-2.3782,-2.3779,-2.3746,-2.374,-2.372,-2.3719,-2.3716,-2.3706,-2.37,-2.3708,-2.3709,-2.3703,-2.37,-2.3689,-2.3688,-2.3688,-2.3688,0,-2.3941,-2.3918,-2.3918,-2.3892,-2.3886,-2.389,-2.3867,-2.3866,-2.3849,-2.3845,-2.3843,-2.3815,-2.3806,-2.378,-2.3764,-2.375,-2.3755,-2.3745,-2.3762,-2.3758,-2.3772,-2.3771,-2.3821,-2.3826,-2.377,-2.377,-2.3771,0,-2.3966,-2.3969,-2.3944,-2.394,-2.393,-2.3925,-2.3918,-2.3891,-2.3886,-2.3866,-2.3867,-2.3856,-2.3846,-2.3833,-2.381,-2.3798,-2.3787,-2.3806,-2.3785,-2.3793,-2.3787,-2.3787,-2.3786,-2.381,-2.3811,-2.3812,-2.3812,0,-2.4013,-2.4002,-2.3994,-2.3983,-2.3976,-2.3966,-2.3953,-2.3952,-2.3921,-2.3916,-2.3907,-2.39,-2.3884,-2.3873,-2.3858,-2.3844,-2.3823,-2.3819,-2.3821,-2.3829,-2.3838,-2.3832,-2.3773,-2.3818,-2.3817,-2.3817,-2.3817,-2.3816,-2.4051,-2.4052,-2.4035,-2.4027,-2.4015,-2.4004,-2.4003,-2.3985,-2.3978,-2.3963,-2.3948,-2.394,-2.3922,-2.3899,-2.3887,-2.3881,-2.3869,-2.3872,-2.3873,-2.3874,-2.3877,-2.384,-2.3878,-2.3877,-2.3877,-2.3877,-2.3877,0,-2.4096,-2.4083,-2.4077,-2.4061,-2.4055,-2.4037,-2.4022,-2.4018,-2.4012,-2.3998,-2.3989,-2.3978,-2.3968,-2.3945,-2.3932,-2.3931,-2.3921,-2.3928,-2.3928,-2.3925,-2.3889,-2.3888,-2.3937,-2.3937,-2.3937,-2.3937,-2.3937,-2.3937,-2.4119,-2.412,-2.4106,-2.4101,-2.4088,-2.4082,-2.4075,-2.4064,-2.4053,-2.4043,-2.4034,-2.402,-2.4001,-2.3987,-2.3976,-2.397,-2.3966,-2.3977,-2.3967,-2.3933,-2.3927,-2.3922,-2.3921,-2.3976,-2.3976,-2.4004,-2.4004,-2.4004]},{"header":{"parameterUnit":"m.s-1","parameterCategory":1,"la1":30.2991,"la2":30.254,"lo1":-89.0895,"lo2":-89.0444,"dy":0.0017,"dx":0.0017,"nx":28,"ny":28,"refTime":"2024-05-30T21:00:00:Z","depth":0,"parameterNumber":3,"parameterNumberName":"V-component_of_WINDS"},"data":[0,0,0,0,0,0,0,0,0,0,0,0,0,0,0,0,0,0,0,0,0,0,0,0,0,0,0,0,0,0,0,0,0,0,0,0,0,0,0,0,0,0,0,0,0,0,0,0,0,0,0,0,0,0,0,0,0,0,4.2165,4.2165,0,4.2178,4.2178,4.2178,4.214,4.2139,4.2138,4.2137,4.2147,4.2148,4.215,0,0,0,0,0,0,0,0,0,0,0,0,0,4.2107,4.2108,4.2165,4.2165,4.2166,4.2178,4.2178,4.2178,4.2141,4.2139,4.2138,4.2136,4.2147,4.2148,4.215,0,0,0,0,0,0,0,0,0,0,0,0,0,4.2127,4.2109,4.2165,4.2148,4.2147,4.2178,4.2178,4.2178,4.2141,4.2139,4.2137,4.2136,4.2146,4.2148,4.215,4.2197,0,0,4.2156,4.2157,0,0,0,0,0,0,0,0,4.2126,4.2129,4.2151,4.215,4.2148,4.2156,4.2161,4.2184,4.2141,4.2143,4.2137,4.2135,4.2151,4.2153,4.2159,4.2197,4.2198,4.2156,4.2158,4.2158,4.2159,0,0,0,0,0,0,0,4.2125,4.2128,4.217,4.2151,4.2149,4.214,4.2141,4.2165,4.2156,4.2143,4.214,4.2142,4.215,4.2157,4.2159,4.2198,4.2156,4.2158,4.2159,4.216,4.2277,4.2279,0,0,0,0,0,0,4.2126,4.2128,4.217,4.217,4.2133,4.2142,4.2143,4.2155,4.2156,4.2155,4.2144,4.214,4.2154,4.2156,4.2159,4.2215,4.2158,4.216,4.2161,4.2275,4.2277,4.228,0,0,0,0,0,0,4.2125,4.213,4.2169,4.2148,4.2153,4.2145,4.2158,4.2156,4.2163,4.2157,4.2155,4.2152,4.2153,4.2156,4.2188,4.2215,4.2161,4.2163,4.2273,4.2276,4.2279,4.2327,0,0,0,0,0,0,4.2123,4.213,4.2148,4.2149,4.2154,4.2199,4.216,4.2158,4.2167,4.2163,4.2164,4.2163,4.2152,4.2185,4.219,4.2216,4.2165,4.227,4.2274,4.2278,4.2323,4.2331,4.2338,0,0,0,0,0,4.2121,4.216,4.2149,4.2154,4.2176,4.22,4.2203,4.219,4.2169,4.2187,4.2183,4.2163,4.2211,4.2189,4.2194,4.2221,4.2269,4.2273,4.2277,4.2319,4.2329,4.2338,0,0,0,0,0,0,4.216,4.2159,4.2147,4.2188,4.2195,4.2194,4.2216,4.2201,4.2213,4.2209,4.2191,4.2192,4.2228,4.2227,4.2203,4.2267,4.2236,4.2242,4.2266,4.2276,4.2283,4.2283,4.2166,0,0,0,0,0,4.2173,4.2194,4.2192,4.2228,4.2232,4.2224,4.2234,4.2224,4.223,4.2232,4.2231,4.2237,4.2253,4.2264,4.2279,4.2322,4.2323,4.2344,4.2351,4.2358,4.2363,4.2387,4.2397,4.2294,4.2294,4.2293,0,0,4.2201,4.2203,4.2217,4.2236,4.224,4.2261,4.2226,4.225,4.2266,4.2235,4.2266,4.2266,4.2271,4.231,4.2326,4.2311,4.2391,4.2363,4.2368,4.237,4.2392,4.2402,4.2411,4.2296,4.2296,4.2296,0,0,4.2262,4.2266,4.2297,4.2303,4.231,4.2305,4.2312,4.2315,4.2313,4.2345,4.2323,4.2341,4.2369,4.2375,4.2381,4.2447,4.2429,4.2452,4.2492,4.2515,4.2524,4.2531,4.2555,4.2564,4.2457,4.2457,4.2457,0,4.2295,4.2328,4.2314,4.2341,4.235,4.2325,4.2356,4.2362,4.2373,4.238,4.2362,4.2399,4.2401,4.2441,4.2457,4.2463,4.2471,4.2452,4.2524,4.2531,4.2537,4.256,4.2569,4.246,4.246,4.2459,4.2459,0,4.2369,4.2391,4.2415,4.2429,4.2441,4.2469,4.246,4.2474,4.2463,4.2459,4.2492,4.2493,4.2509,4.2518,4.2506,4.2557,4.2547,4.2527,4.2495,4.255,4.2572,4.258,4.2464,4.2463,4.2462,4.2461,0,0,4.2454,4.2462,4.2471,4.2478,4.2485,4.2502,4.253,4.2546,4.2558,4.2567,4.259,4.2616,4.2598,4.2605,4.2595,4.2616,4.2669,4.2593,4.2593,4.2608,4.2726,4.2742,4.2752,4.2657,4.2659,4.266,4.2726,0,4.2516,4.2565,4.2554,4.2602,4.2624,4.2601,4.2625,4.2632,4.263,4.2647,4.2644,4.2663,4.2637,4.2642,4.2661,4.2659,4.2693,4.2654,4.2679,4.268,4.2679,4.2763,4.278,4.2842,4.2734,4.2736,4.2737,0,4.2594,4.2608,4.2659,4.2665,4.2673,4.2695,4.271,4.2727,4.2735,4.2731,4.2741,4.2727,4.2754,4.2722,4.276,4.2733,4.2743,4.2743,4.2745,4.2747,4.2712,4.2769,4.2861,4.2871,4.275,4.2748,4.2748,0,4.2653,4.2684,4.2719,4.2725,4.2732,4.2749,4.2752,4.2758,4.277,4.2782,4.279,4.2805,4.2813,4.2826,4.2816,4.2793,4.2855,4.2822,4.2854,4.2854,4.2868,4.2868,4.2964,4.2873,4.2873,4.2873,4.2873,0,4.2723,4.2755,4.2746,4.2768,4.2803,4.2791,4.2826,4.2827,4.2833,4.2854,4.2834,4.2854,4.284,4.2858,4.285,4.2884,4.2887,4.2885,4.2883,4.2888,4.2888,4.2894,4.289,4.2875,4.2875,4.2874,4.2874,0,4.2795,4.279,4.2827,4.2832,4.2833,4.286,4.2863,4.2883,4.288,4.2907,4.2912,4.2907,4.2928,4.2919,4.2941,4.2936,4.2979,4.297,4.2977,4.2975,4.3007,4.3005,4.3112,4.3126,4.3025,4.3026,4.3027,0,4.2841,4.2865,4.2873,4.2887,4.2893,4.2914,4.2926,4.2915,4.2928,4.294,4.2959,4.2978,4.2994,4.3028,4.3026,4.3043,4.3035,4.3071,4.3037,4.3042,4.3037,4.3036,4.3039,4.3078,4.308,4.308,4.3081,0,4.2923,4.292,4.2939,4.2957,4.2973,4.2986,4.2998,4.301,4.2999,4.3015,4.3037,4.305,4.3073,4.3093,4.3108,4.3111,4.3095,4.3092,4.31,4.3106,4.3109,4.3109,4.2996,4.309,4.3089,4.3088,4.3088,4.3087,4.2984,4.3005,4.3015,4.3037,4.3045,4.3057,4.3077,4.3077,4.3096,4.3115,4.3107,4.3133,4.3141,4.316,4.3165,4.3185,4.3171,4.3183,4.3186,4.3189,4.3194,4.3106,4.3188,4.3187,4.3187,4.3187,4.3187,0,4.3066,4.3072,4.3092,4.3111,4.3128,4.3113,4.3125,4.314,4.3164,4.3173,4.319,4.3216,4.3236,4.3235,4.3254,4.327,4.3263,4.3275,4.3274,4.3275,4.3205,4.3197,4.328,4.328,4.328,4.328,4.328,4.328,4.3111,4.3147,4.3146,4.3186,4.3191,4.3218,4.3226,4.3237,4.3245,4.3276,4.3293,4.3293,4.3299,4.3317,4.3335,4.3334,4.3342,4.3358,4.3354,4.3289,4.328,4.3271,4.3263,4.3359,4.3359,4.3423,4.3423,4.3424]}]]